• Join FlightAware (Why Join?)
  • Login
  • US Flag 
07:34PM EST


 

Airport Tracker/Info


-or-


 

Live Flight TrackerFlight Track Log ✈ SWA881 ✈ 27-Apr-2013 ✈ KLAS - KABQ

Flight Track Log - Related Links

Times and Time Zones

All times are in EDT time to prevent confusion due to time zone crossing. See the SWA881 flight status page for this flight to view local times or setup timezone preferences in your user account.

Time Position Orientation Groundspeed Altitude Reporting Facility
EDT Latitude Longitude Course Direction KTS MPH feet Rate Location/Type
06:51PM 36.0753 -115.1739 259° West 177 204 3,300  Level Los Angeles Center
06:52PM 36.0625 -115.2550 259° West 233 268 5,700 1,878 Climbing Los Angeles Center
06:53PM 36.0281 -115.2742 204° Southwest 240 276 6,900 2,481 Climbing Los Angeles Center
06:54PM 35.9522 -115.2964 193° South 269 310 10,000 3,000 Climbing Los Angeles Center
06:55PM 35.8717 -115.2544 157° South 301 346 13,100 3,707 Climbing Los Angeles Center
06:56PM 35.8358 -115.1311 110° East 318 366 17,600 3,366 Climbing Los Angeles Center
06:57PM 35.8258 -115.0225 96° East 326 375 20,000 1,935 Climbing Los Angeles Center
06:58PM 35.8367 -114.8986 84° East 361 415 21,600 1,935 Climbing Los Angeles Center
06:59PM 35.8486 -114.7636 84° East 387 445 24,000 2,244 Climbing Los Angeles Center
07:00PM 35.8608 -114.6258 84° East 400 460 26,200 2,049 Climbing Los Angeles Center
07:01PM 35.8744 -114.4839 83° East 413 475 28,200 1,790 Climbing Los Angeles Center
07:02PM 35.8861 -114.3389 84° East 422 486 29,900 1,756 Climbing Los Angeles Center
07:03PM 35.9014 -114.1594 84° East 435 501 31,800 1,707 Climbing Los Angeles Center
07:04PM 35.9147 -114.0081 84° East 441 507 33,400 1,463 Climbing Los Angeles Center
07:05PM 35.9183 -113.8542 88° East 447 514 34,800 1,366 Climbing Los Angeles Center
07:06PM 35.8917 -113.7000 102° East 458 527 36,200 1,306 Climbing Los Angeles Center
07:07PM 35.8675 -113.5506 101° East 454 522 37,500 1,122 Climbing Los Angeles Center
07:08PM 35.8431 -113.3956 101° East 460 529 38,500 732 Climbing Los Angeles Center
07:09PM 35.8186 -113.2436 101° East 456 525 39,000 242 Climbing Los Angeles Center
07:10PM 35.7947 -113.0911 101° East 454 522 39,000  Level Los Angeles Center
07:11PM 35.7650 -112.9081 101° East 453 521 39,000  Level Los Angeles Center
07:12PM 35.7392 -112.7564 102° East 452 520 39,000  Level Los Angeles Center
07:13PM 35.7142 -112.6053 101° East 451 519 39,000  Level Los Angeles Center
07:14PM 35.6889 -112.4547 102° East 449 517 39,000  Level Los Angeles Center
07:15PM 35.6628 -112.3039 102° East 451 519 39,000  Level Los Angeles Center
07:16PM 35.6369 -112.1556 102° East 446 513 39,000  Level Los Angeles Center
07:17PM 35.6108 -112.0056 102° East 450 518 39,000  Level Los Angeles Center
07:18PM 35.5914 -111.8556 99° East 448 516 39,000  Level Los Angeles Center
07:19PM 35.5867 -111.7033 92° East 447 514 39,000  Level Albuquerque Center
07:20PM 35.5822 -111.5517 92° East 447 514 39,000  Level Albuquerque Center
07:21PM 35.5764 -111.3864 92° East 449 517 39,000  Level Albuquerque Center
07:22PM 35.5725 -111.2378 92° East 453 521 39,000  Level Albuquerque Center
07:23PM 35.5664 -111.0636 92° East 458 527 39,000  Level Albuquerque Center
07:24PM 35.5614 -110.9153 92° East 456 525 39,000  Level Albuquerque Center
07:25PM 35.5556 -110.7681 93° East 453 521 39,000  Level Albuquerque Center
07:26PM 35.5500 -110.5964 92° East 452 520 39,000  Level Albuquerque Center
07:27PM 35.5442 -110.4489 93° East 451 519 39,000  Level Albuquerque Center
07:29PM 35.5392 -110.2769 92° East 453 521 39,000  Level Albuquerque Center
07:30PM 35.5328 -110.1289 93° East 453 521 39,000  Level Albuquerque Center
07:31PM 35.5269 -109.9808 93° East 454 522 39,000  Level Albuquerque Center
07:32PM 35.5197 -109.8075 93° East 456 525 39,000  Level Albuquerque Center
07:33PM 35.5142 -109.6589 93° East 457 526 39,000  Level Albuquerque Center
07:34PM 35.5058 -109.4869 93° East 455 524 39,000  Level Albuquerque Center
07:35PM 35.4989 -109.3372 93° East 458 527 39,000  Level Albuquerque Center
07:36PM 35.4897 -109.1900 94° East 457 526 39,000  Level Albuquerque Center
07:37PM 35.4803 -109.0214 94° East 450 518 39,000 -146 Level Albuquerque Center
07:38PM 35.4725 -108.8742 94° East 452 520 38,700 -1,377 Descending Albuquerque Center
07:39PM 35.4619 -108.7053 94° East 448 516 36,200 -2,557 Descending Albuquerque Center
07:40PM 35.4536 -108.5619 94° East 445 512 33,500 -2,361 Descending Albuquerque Center
07:41PM 35.4447 -108.4206 94° East 440 506 31,400 -2,146 Descending Albuquerque Center
07:42PM 35.4342 -108.2636 95° East 423 487 29,100 -2,049 Descending Albuquerque Center
07:43PM 35.4261 -108.1347 94° East 406 467 27,200 -1,967 Descending Albuquerque Center
07:44PM 35.4175 -107.9911 94° East 388 447 25,100 -1,869 Descending Albuquerque Center
07:45PM 35.4086 -107.8725 95° East 373 429 23,400 -1,707 Descending Albuquerque Center
07:46PM 35.4000 -107.7514 95° East 372 428 21,600 -1,857 Descending Albuquerque Center
07:47PM 35.3864 -107.6039 96° East 372 428 19,500 -1,820 Descending Albuquerque Center
07:48PM 35.3819 -107.4958 93° East 365 420 17,900 -1,559 Descending Albuquerque Center
07:49PM 35.3306 -107.3581 115° Southeast 348 400 16,200 -1,615 Descending Albuquerque Center
07:50PM 35.2833 -107.2553 119° Southeast 345 397 14,400 -1,617 Descending Albuquerque Center
07:51PM 35.2475 -107.1764 119° Southeast 340 391 13,100 -1,461 Descending Albuquerque Center
07:52PM 35.2047 -107.0839 119° Southeast 318 366 11,600 -1,488 Descending Albuquerque Center
07:53PM 35.1586 -106.9856 120° Southeast 294 338 10,100 -1,488 Descending Albuquerque Center
07:54PM 35.1094 -106.9100 128° Southeast 287 330 8,600 -1,016 Descending Albuquerque Center
07:55PM 35.0617 -106.8381 129° Southeast 286 329 8,000 -451 Descending Albuquerque Center
07:56PM 35.0439 -106.7531 104° East 205 236 7,600 -439 Descending Albuquerque Center
07:57PM 35.0444 -106.7042 89° East 216 249 7,100 -895 Descending Albuquerque Center
07:58PM 35.0444 -106.6503 90° East 185 213 5,900 -829 Descending Albuquerque Center
07:59PM 35.0442 -106.5911 90° East 172 198 5,400 -484 Descending Albuquerque Center
08:01PM 35.0333 -106.6000 90° East  Level FlightAware Approximate